Location: Luncan
(45.6333°N, 23.1667°E)
Time: 15:19:56
(UTC+00:00)

Daily predictions for brighter satellites

Satellite Brightness Start Highest point End
(mag) Time Altitude Azimuth Time Altitude Azimuth Time Altitude Azimuth
NOSS 0 Rocket 4.4 15:10:34 10° NNW 15:16:46 69° WSW 15:22:53 10° SSE
Tsikada Rocket 4.1 15:11:30 10° S 15:17:41 63° E 15:23:49 10° NNE
BREEZE M DEB (TANK) 3.8 15:16:01 10° W 15:18:15 31° SSW 15:22:27 10° SE
YAOGAN 11 4.4 15:14:04 10° NNE 15:18:30 54° E 15:22:57 10° S
Okean 1-7 Rocket 4.2 15:14:31 10° NNW 15:18:51 61° W 15:23:12 10° S
Meteor 1-31 Rocket 3.4 15:17:46 10° SE 15:21:04 32° ENE 15:24:24 10° N
SL-16 R/B 4.2 15:15:50 10° N 15:21:12 31° WNW 15:26:33 10° WSW
Meteor 2-3 Rocket 3.8 15:15:41 10° N 15:21:21 86° E 15:27:02 10° S
PSLV R/B 4.1 15:17:18 10° S 15:21:28 64° WSW 15:25:43 10° NNW
ATLAS 5 CENTAUR R/B 2.3 15:16:32 10° NW 15:21:42 89° ENE 15:28:06 10° SE
Meteor 1-27 4.4 15:16:33 10° S 15:22:03 53° E 15:27:31 10° NNE
SJ-7 4.3 15:18:28 10° SSE 15:22:22 64° ENE 15:26:20 10° N
ARGOS 3.9 15:17:55 10° S 15:23:16 60° W 15:28:40 10° NNW
Cosmos 1125 Rocket 3.6 15:19:25 10° SSW 15:24:39 90° ENE 15:29:56 10° NNE
Cosmos 2058 Rocket 4.2 15:21:32 10° SE 15:25:09 24° E 15:28:43 10° NE
COSMO-SKYMED 1 4.3 15:22:54 10° ENE 15:25:10 14° E 15:27:26 10° ESE
Cosmos 2219 4.0 15:22:49 10° SSE 15:27:39 31° ESE 15:32:32 10° NE
Tiangong -1.0 15:27:06 10° WSW 15:30:04 38° S 15:33:02 10° ESE
Cosmos 1980 3.9 15:25:01 10° NNW 15:30:44 79° WSW 15:36:24 10° SSE
ERS-2 3.1 15:28:05 10° S 15:30:55 42° W 15:33:45 10° NNW
NOSS 3-4 (A) 4.1 15:24:49 10° NNW 15:31:21 46° NE 15:38:47 10° ESE
NOSS 3-4 (C) 4.1 15:24:58 10° NNW 15:31:26 46° NE 15:38:47 10° ESE
Cosmos 2297 Rocket 2.3 15:26:11 10° SSW 15:31:50 89° WNW 15:37:32 10° NNE
NOSS 3-3 (C) 3.8 15:27:01 10° SW 15:32:28 87° SE 15:38:51 10° NE
NOSS 3-3 (A) 3.8 15:27:45 10° SW 15:33:12 88° ESE 15:39:36 10° NE
Cosmos 1862 3.5 15:31:51 10° N 15:35:38 47° ENE 15:39:24 10° SSE
Cosmos 1238 Rocket 2.7 15:32:00 10° S 15:36:18 78° E 15:39:57 10° N
Cosmos 2292 Rocket 4.5 15:34:37 10° SSE 15:39:26 48° E 15:45:41 10° NNE
Cosmos 614 Rocket 4.3 15:35:52 10° N 15:40:51 43° ENE 15:45:46 10° SE
Cosmos 2150 Rocket 3.9 15:36:17 10° SSW 15:41:25 82° ESE 15:46:37 10° NNE
USA 234 3.3 15:39:46 10° NE 15:46:21 88° NNW 15:52:54 10° SW
Cosmos 1606 Rocket 3.7 15:42:57 10° S 15:47:24 83° W 15:51:53 10° N
Cosmos 1500 3.9 15:45:31 10° NNE 15:48:34 26° ENE 15:51:36 10° SE
Cosmos 1726 Rocket 3.5 15:46:50 10° S 15:51:16 82° E 15:55:44 10° N
USA 308 3.0 15:50:59 10° NNW 15:52:22 16° NNE 15:52:22 16° NNE
Lacrosse 4 Rocket 3.5 15:51:46 10° NNE 15:52:58 11° NE 15:53:05 11° NE
Helios 1B rocket 4.0 15:52:01 10° SSW 15:55:40 37° W 15:59:21 10° NNW
Cosmos 2237 Rocket 3.1 15:51:45 10° NW 15:57:13 52° WSW 16:02:38 10° S
CZ-4B R/B 3.5 15:54:15 10° SSE 15:57:51 89° WSW 16:01:28 10° NNW
Cosmos 1825 Rocket 4.2 15:55:31 10° NNW 15:59:46 58° W 16:03:59 10° S
NOAA 6 4.4 15:55:01 10° SE 15:59:49 42° ENE 16:04:39 10° N
USA 307 4.1 15:57:20 10° NW 16:00:30 23° N 16:02:14 17° NE
Cosmos 2298 Rocket 4.4 15:56:30 10° SSW 16:01:47 67° WNW 16:07:06 10° NNE
USA 305 4.2 15:59:39 10° NW 16:02:38 21° N 16:04:16 17° NE
SMAP 3.4 15:58:26 10° S 16:03:04 72° WSW 16:07:45 10° NNW
[s.n.70975] 3.8 16:07:36 10° SW 16:09:45 26° SSE 16:10:21 23° SE
Cosmos 1634 Rocket 4.4 16:03:31 10° NNW 16:09:46 70° W 16:16:03 10° S
[s.n.70971] 3.8 16:08:01 10° SW 16:10:13 26° SSE 16:10:52 23° SE
[s.n.70976] 3.8 16:08:09 10° SW 16:10:21 26° SSE 16:10:58 23° SE
[s.n.70959] 3.8 16:08:09 10° SW 16:10:21 26° SSE 16:10:58 23° SE
[s.n.70928] 3.8 16:08:10 10° SW 16:10:22 26° SSE 16:11:00 23° SE
[s.n.70961] 3.8 16:08:12 10° SW 16:10:24 26° SSE 16:11:02 23° SE
[s.n.70869] 3.8 16:08:13 10° SW 16:10:25 26° SSE 16:11:03 23° SE
[s.n.70963] 3.8 16:08:13 10° SW 16:10:25 26° SSE 16:11:04 23° SE
[s.n.70926] 3.8 16:08:13 10° SW 16:10:26 26° SSE 16:11:04 23° SE
[s.n.70942] 3.8 16:08:14 10° SW 16:10:26 26° SSE 16:11:04 23° SE
[s.n.70957] 3.8 16:08:14 10° SW 16:10:26 27° SSE 16:11:05 23° SE
[s.n.70935] 3.8 16:08:14 10° SW 16:10:27 27° SSE 16:11:06 23° SE
[s.n.70966] 3.8 16:08:14 10° SW 16:10:27 27° SSE 16:11:06 23° SE
[s.n.70946] 3.8 16:08:14 10° SW 16:10:27 27° SSE 16:11:06 23° SE
[s.n.70960] 3.8 16:08:14 10° SW 16:10:27 27° SSE 16:11:06 23° SE
[s.n.70951] 3.8 16:08:16 10° SW 16:10:29 27° SSE 16:11:07 23° SE
[s.n.70950] 3.8 16:08:16 10° SW 16:10:29 27° SSE 16:11:07 23° SE
[s.n.70943] 3.8 16:08:16 10° SW 16:10:30 27° SSE 16:11:08 23° SE
[s.n.70969] 3.8 16:08:18 10° SW 16:10:31 27° SSE 16:11:10 23° SE
[s.n.70958] 3.8 16:08:17 10° SW 16:10:32 27° SSE 16:11:11 23° SE
[s.n.70962] 3.8 16:08:18 10° SW 16:10:32 27° SSE 16:11:12 23° SE
[s.n.70977] 3.8 16:08:18 10° SW 16:10:33 27° SSE 16:11:12 23° SE
Cosmos 1544 2.6 16:07:38 10° N 16:10:53 75° E 16:14:08 10° SSE
SKYMED 2 3.9 16:10:05 13° NNE 16:13:39 41° E 16:17:45 10° S
ATLAS CENTAUR R/B 3.3 16:10:12 10° NW 16:14:05 36° NNE 16:17:43 21° E
YAOGAN 1 3.9 16:15:41 20° NE 16:15:41 20° NE 16:17:53 10° NNE
Cosmos 1602 4.2 16:12:42 10° N 16:16:08 34° ENE 16:19:33 10° SE
Cosmos 2084 Rocket 3.0 16:13:35 10° NW 16:17:25 71° NE 16:20:33 15° SE
NOSS 2-1 (C) 4.5 16:15:08 10° NW 16:19:16 58° SW 16:25:05 10° SSE
Cosmos 2142 Rocket 4.4 16:13:43 10° N 16:19:54 85° E 16:26:02 10° S
Cosmos-2242 3.7 16:17:25 10° SSE 16:21:15 31° E 16:21:53 30° ENE
Cosmos 2227 Rocket 2.7 16:21:30 10° SW 16:27:05 60° WNW 16:32:43 10° NNE
Helios 1A 3.0 16:25:10 10° NNE 16:29:20 82° WNW 16:33:29 10° SSW
Cosmos 1437 Rocket 3.1 16:26:24 10° NNW 16:30:03 62° W 16:33:43 10° S
Cosmos 2263 Rocket 2.2 16:26:27 10° S 16:31:50 54° ESE 16:34:44 27° NE
ADEOS 3.6 16:27:10 10° SSE 16:32:15 56° ENE 16:37:21 10° N
ISS -2.8 16:31:21 10° NW 16:34:22 34° N 16:34:22 34° N
Cosmos 405 Rocket 3.7 16:34:01 10° SSW 16:37:37 45° WNW 16:41:18 10° N
Cosmos 1607 3.9 16:32:25 10° SSW 16:38:43 86° SE 16:42:57 23° NE
SL-08 R/B 3.2 16:38:40 29° NE 16:40:49 58° E 16:45:21 10° S
Cosmos 2344 3.9 16:34:57 10° S 16:42:01 39° ESE 16:44:19 32° E
Cosmos 1812 Rocket 4.2 16:39:38 10° SSE 16:42:45 36° SE 16:42:45 36° SE
NOSS 8 (A) 4.5 16:40:45 10° SSW 16:44:37 62° SE 16:44:37 62° SE
Cosmos 1269 Rocket 4.2 16:40:28 10° NNW 16:45:46 75° WSW 16:51:02 10° SSE
CZ-4B R/B 4.1 16:42:12 10° S 16:47:16 58° WSW 16:52:16 10° NNW
ATLAS 2AS CENTAUR R/B 3.8 16:41:49 10° NNW 16:47:24 24° NNE 16:48:23 24° NE
Cosmos 2151 4.2 16:43:30 10° NNW 16:47:32 43° W 16:51:34 10° SSW
Cosmos 2026 Rocket 4.3 16:42:07 10° SSE 16:47:48 40° E 16:49:02 36° ENE
SL-16 R/B 2.6 16:42:48 10° NNW 16:48:27 65° WSW 16:54:02 10° SSE
Meteor 1-22 4.5 16:46:44 10° N 16:52:06 76° ENE 16:57:33 10° SSE
Cosmos 1666 2.8 16:48:44 10° NNW 16:52:14 65° W 16:55:44 10° S
SL-8 R/B 3.7 16:50:10 10° WNW 16:54:55 63° N 16:55:36 56° NE
Cosmos 1092 Rocket 4.1 16:49:30 10° SSE 16:55:19 46° E 16:56:34 41° ENE
Radarsat Rocket 4.1 16:49:50 10° S 16:55:39 72° WSW 17:01:34 10° NNW
Meteor 1-25 Rocket 4.1 16:51:57 10° N 16:57:38 61° ENE 17:03:11 10° SSE
CZ-4B DEB 4.2 16:57:28 27° SE 17:00:23 58° ENE 17:05:51 10° N
COSMO-SKYMED 1 3.0 16:58:40 19° N 17:01:44 62° WNW 17:06:01 10° SSW
Nadezhda 4 Rocket 3.9 16:57:07 10° S 17:03:17 85° W 17:09:28 10° N
Tiangong 0.0 17:03:44 10° WSW 17:05:50 24° SW 17:05:50 24° SW
Cosmos 1943 3.1 17:01:07 10° NNW 17:06:41 58° ENE 17:06:47 58° ENE
Cosmos 2219 4.2 17:06:17 10° SW 17:11:37 44° WNW 17:15:24 19° N
CZ-4B R/B 3.4 17:17:13 58° NNW 17:17:13 58° NNW 17:20:46 10° NNW
Cosmos 2297 Rocket 4.5 17:12:50 10° W 17:16:42 19° NW 17:20:37 10° N
Cosmos 44 3.5 17:11:46 10° NW 17:17:10 77° WSW 17:18:21 54° SSE
Cosmos 1812 4.3 17:16:39 10° SSW 17:18:31 28° SSW 17:18:31 28° SSW
Cosmos 1627 Rocket 4.3 17:20:43 10° S 17:26:55 78° E 17:28:12 58° NNE
USA 234 4.1 17:26:57 33° NNE 17:28:58 41° NNW 17:35:00 10° W
Cosmos 1428 Rocket 4.5 17:23:23 10° S 17:29:42 82° W 17:35:24 13° N
Cosmos 2082 4.5 17:26:28 10° SW 17:31:52 48° WNW 17:34:02 32° N
Lacrosse 4 Rocket 3.7 17:28:04 10° NNW 17:29:08 17° NNW 17:29:08 17° NNW
Meteor 2-2 Rocket 4.5 17:36:45 10° SSW 17:42:25 68° WNW 17:43:33 54° NNW
H-2A R/B 4.4 17:50:17 10° SW 17:54:37 24° S 17:54:44 24° S
Cosmos 2263 Rocket 3.8 18:11:22 10° WSW 18:16:03 27° NW 18:16:28 27° NW
ATLAS CENTAUR R/B 3.7 18:14:07 10° NW 18:18:26 57° W 18:18:26 57° W
ATLAS 2AS CENTAUR R/B 4.2 18:32:43 10° NW 18:35:49 28° NNW 18:35:49 28° NNW
Cosmos 2344 4.4 18:49:02 10° WSW 18:54:21 41° WNW 18:54:21 41° WNW
